{"data":{"norad_id":59179,"intl_designator":"2024-045B","name":"STARLINK-31410","alt_names":[],"object_type":"PAYLOAD","status":"ACTIVE","operator":null,"country":"US","launch_date":"2024-03-10","launch_site_code":"AFETR","launch_vehicle":null,"mission":null,"orbit_class":"UNKNOWN","rcs_meters":null,"size_class":null,"mass_kg":null,"dimensions":null,"purposes":["comms"],"wikipedia_slug":null,"has_3d_model":false,"image_url":null,"decayed_at":null,"tle_current":{"epoch":"2026-09-19T18:45:39.763872Z","epoch_age_seconds":220917,"freshness":"STALE","line1":"1 59179U 24045B   26262.78171023  .00001273  00000+0  55774-4 0  9997","line2":"2 59179  43.0002  76.5536 0000832 277.3928  82.6829 15.27580960142842","mean_motion":15.2758096,"eccentricity":8.32e-5,"inclination_deg":43.0002,"raan_deg":76.5536,"arg_perigee_deg":277.3928,"mean_anomaly_deg":82.6829,"bstar":5.5774e-5,"rev_number":14284,"period_min":94.266689472223,"perigee_km":482.47537101178,"apogee_km":483.61707189982,"semimajor_km":6861.1832214558,"source":"CELESTRAK","updated_at":"2026-09-21T09:00:34.061773Z"}}}